Location: Crescent
(42.8242°N, 73.7329°W)
Time: 02:51:08
(UTC+00:00)

Tiros 1 - Pass Details

Date: 24 February 2026
Orbit: 618 x 649 km, 48.4° (Epoch: 7 March)

Event Time Altitude Azimuth Distance (km) Brightness Sun altitude
Rises 11:57:19 0° 251° (WSW) 2,925 10.0 2.5°
Reaches altitude 10° 11:59:40 10° 254° (WSW) 2,013 9.2 2.9°
Maximum altitude 12:04:17 70° 338° (NNW) 672 7.2 3.7°
Drops below altitude 10° 12:08:52 10° 62° (ENE) 1,999 10.5 4.5°
Sets 12:11:11 0° 65° (ENE) 2,902 11.3 4.9°
